DECAYED
Showing default

DEAR-1, 58586 (Decayed)

Orbit data source: Space-Track

DEAR-1, 58586 was a payload satellite owned by Ziwei Yutong (CN) in LEO that was launched on Sun, 17 Dec 2023 UTC via an SHUANG QUXIAN 1 launch vehicle from the Jiuquan Satellite Launch Center, China (JSC). Payload-class satellites include a variety of spacecraft equipped with specific instruments for various scientific and technological missions. These include communications satellites like Starlink; space stations such as the ISS; scientific satellites like the Hubble; Earth observation satellites from companies like Planet Labs, Umbra, and HawkEye 360; GPS; miniature CubeSats for education and research; and military/defense satellites.

Not visible in the next 10 days
Identifier
58586, 2023-199A
Orbit
Decayed
Country
Flag of CNCN / PRC
Related business
Manufacturer
Ziwei Yutong
Mission
Decayed Commercial Microgravity
Bus & Motor
DEAR A10, Unknown motor
Mass
~300 kg wet, ~150 kg dry
Launch date (UTC)
2023-12-17 (3 years ago)
Launch vehicle
SHUANG QUXIAN 1
Launch site
Jiuquan Satellite Launch Center, China (JSC)
Object type
Payload
Rocket body
Debris
Shape & HBR
Box + 2 Pan, 0.5 m
Radar Cross Section
1.500 m², Medium (>0.1 m² and < 1m²)

Expand to show TLE details & history
Last TLE update: 9 months ago

TLE from 9 months ago
0 DEAR-1
1 58586U 23199A   25273.39716029  .04250344  24957-5  11436-2 0  9993
2 58586  97.4335  54.1609 0008829 276.0618  83.9669 16.28189484100864
Epoch: 2025-09-30T09:31Z
TLE epoch observation values (Epoch: 2025-09-30T09:31:54.649Z)
Latitude
0.00002°
Longitude
-98.20392°
Altitude
200.039 km
Speed
7.787 km/s
True Right ascension
03h 36m 38s
True Declination
0° 00' 00"
Sunlit
Object was in full shadow at epoch
Visualization orbit readout
Latitude
Unknown
Longitude
Unknown
Altitude
Unknown
Speed
Unknown
Apparent Right ascension
Unknown
Apparent Declination
Unknown
Sunlit
N/A
Visualization observer readout
Local Sidereal Time
21:26:05
Azimuth
Unknown
Elevation
Unknown
Doppler factor
Unknown
Orbital elements
Apogee altitude
200.037 km
Perigee altitude
188.432 km
Semi-major axis
6,572.371 km
Eccentricity
0.00088
Inclination
97.4335°
RAAN
54.1609°
Arg. of periapsis
276.0618°
True anomaly
84.06752°
Mean anomaly
83.9669°
Eccentric anomaly
84.01721°
Mean motion
4.07343 °/min
Orbital period
88.38 mins
BSTAR
0.0011436
Loading maneuver chart data...
Computing Atmospheric mass density...
Loading historical data...
Loading historical data...
Loading historical data...
Loading historical data...
Loading historical data...
Loading historical data...
Loading historical data...
Other satellites on launch #199 in the year 2023 (2023-12-17 UTC)

Documentation

Showing up to 5 results
|